contact:dominique.lefevre@mio.osupytheas.fr, maurice.libes@osupytheas.fr, didier.mallarino@osupytheas.fr
Project:EMSO http://www.emso-fr.org/EMSO-France
Depth: 2436.0 m
Title:EMSO Ligure Ouest : Data MII capteur MICROCAT
DateTime_Computer,Latitude,Longitude,Temperature,Conductivity,Pressure,DateTime_Instrument
DateTime_Computer,Latitude,Longitude,degC,S m-1,dbar,DateTime_Instrument
2020-01-20T00:00:58Z,42.805,6.029,13.2962,4.59961,2469.96,2020-1-20T02:01:31Z
2020-01-20T00:04:01Z,42.805,6.029,13.2963,4.59961,2469.97,2020-1-20T02:04:34Z
2020-01-20T00:07:05Z,42.805,6.029,13.2965,4.59962,2470.007,2020-1-20T02:07:37Z
2020-01-20T00:10:08Z,42.805,6.029,13.2962,4.59962,2469.993,2020-1-20T02:10:41Z
2020-01-20T00:13:11Z,42.805,6.029,13.2963,4.59961,2469.97,2020-1-20T02:13:44Z
2020-01-20T00:16:14Z,42.805,6.029,13.2962,4.59961,2469.993,2020-1-20T02:16:47Z
2020-01-20T00:19:18Z,42.805,6.029,13.2964,4.59961,2469.993,2020-1-20T02:19:50Z
2020-01-20T00:22:21Z,42.805,6.029,13.2964,4.59961,2469.993,2020-1-20T02:22:54Z
2020-01-20T00:25:24Z,42.805,6.029,13.2961,4.59962,2469.97,2020-1-20T02:25:57Z
2020-01-20T00:28:27Z,42.805,6.029,13.2963,4.59963,2469.993,2020-1-20T02:29:00Z
2020-01-20T00:31:31Z,42.805,6.029,13.2961,4.59962,2470.017,2020-1-20T02:32:04Z
2020-01-20T00:34:34Z,42.805,6.029,13.2965,4.59961,2469.993,2020-1-20T02:35:07Z
2020-01-20T00:37:37Z,42.805,6.029,13.2965,4.59962,2469.993,2020-1-20T02:38:10Z
2020-01-20T00:40:40Z,42.805,6.029,13.2963,4.59963,2470.007,2020-1-20T02:41:13Z
2020-01-20T00:43:44Z,42.805,6.029,13.2964,4.59961,2469.97,2020-1-20T02:44:17Z
2020-01-20T00:46:47Z,42.805,6.029,13.2964,4.59964,2470.007,2020-1-20T02:47:20Z
2020-01-20T00:49:50Z,42.805,6.029,13.2961,4.59961,2470.007,2020-1-20T02:50:23Z
2020-01-20T00:52:53Z,42.805,6.029,13.2962,4.59961,2469.984,2020-1-20T02:53:26Z
2020-01-20T00:55:57Z,42.805,6.029,13.2961,4.59962,2470.053,2020-1-20T02:56:29Z
2020-01-20T00:59:00Z,42.805,6.029,13.2961,4.59961,2470.017,2020-1-20T02:59:33Z
2020-01-20T01:02:03Z,42.805,6.029,13.2962,4.59963,2470.007,2020-1-20T03:02:36Z
2020-01-20T01:05:06Z,42.805,6.029,13.2962,4.59962,2470.03,2020-1-20T03:05:39Z
2020-01-20T01:08:10Z,42.805,6.029,13.2964,4.59962,2469.993,2020-1-20T03:08:43Z
2020-01-20T01:11:13Z,42.805,6.029,13.2967,4.59961,2470.03,2020-1-20T03:11:46Z
2020-01-20T01:14:16Z,42.805,6.029,13.2958,4.59961,2470.04,2020-1-20T03:14:49Z
2020-01-20T01:17:19Z,42.805,6.029,13.2963,4.59961,2470.04,2020-1-20T03:17:52Z
2020-01-20T01:20:23Z,42.805,6.029,13.2962,4.59961,2470.007,2020-1-20T03:20:55Z
2020-01-20T01:23:26Z,42.805,6.029,13.2959,4.59961,2470.04,2020-1-20T03:23:59Z
2020-01-20T01:26:29Z,42.805,6.029,13.2961,4.59963,2470.03,2020-1-20T03:27:02Z
2020-01-20T01:29:32Z,42.805,6.029,13.2962,4.59962,2470.053,2020-1-20T03:30:05Z
2020-01-20T01:32:36Z,42.805,6.029,13.2961,4.59961,2470.077,2020-1-20T03:33:08Z
2020-01-20T01:35:39Z,42.805,6.029,13.2961,4.59961,2470.03,2020-1-20T03:36:12Z
2020-01-20T01:38:42Z,42.805,6.029,13.2963,4.59961,2470.04,2020-1-20T03:39:15Z
2020-01-20T01:41:45Z,42.805,6.029,13.2968,4.59961,2470.04,2020-1-20T03:42:18Z
2020-01-20T01:44:48Z,42.805,6.029,13.2965,4.59963,2470.017,2020-1-20T03:45:21Z
2020-01-20T01:47:52Z,42.805,6.029,13.2963,4.59961,2470.017,2020-1-20T03:48:25Z
2020-01-20T01:50:55Z,42.805,6.029,13.2960,4.59963,2470.053,2020-1-20T03:51:28Z
2020-01-20T01:53:58Z,42.805,6.029,13.2964,4.59961,2470.053,2020-1-20T03:54:31Z
2020-01-20T01:57:02Z,42.805,6.029,13.2964,4.59961,2470.063,2020-1-20T03:57:34Z
2020-01-20T02:00:05Z,42.805,6.029,13.2961,4.59961,2470.053,2020-1-20T04:00:38Z
2020-01-20T02:03:08Z,42.805,6.029,13.2961,4.59961,2470.063,2020-1-20T04:03:41Z
2020-01-20T02:06:11Z,42.805,6.029,13.2964,4.59962,2470.063,2020-1-20T04:06:44Z
2020-01-20T02:09:14Z,42.805,6.029,13.2965,4.59961,2470.077,2020-1-20T04:09:47Z
2020-01-20T02:12:18Z,42.805,6.029,13.2963,4.59961,2470.04,2020-1-20T04:12:51Z
2020-01-20T02:15:21Z,42.805,6.029,13.2964,4.59961,2470.077,2020-1-20T04:15:54Z
2020-01-20T02:18:24Z,42.805,6.029,13.2962,4.59961,2470.017,2020-1-20T04:18:57Z
2020-01-20T02:21:27Z,42.805,6.029,13.2964,4.59962,2470.053,2020-1-20T04:22:00Z
2020-01-20T02:24:31Z,42.805,6.029,13.2960,4.59961,2470.053,2020-1-20T04:25:04Z
2020-01-20T02:27:34Z,42.805,6.029,13.2961,4.59962,2470.04,2020-1-20T04:28:07Z
2020-01-20T02:30:37Z,42.805,6.029,13.2967,4.59962,2470.04,2020-1-20T04:31:10Z
2020-01-20T02:33:40Z,42.805,6.029,13.2963,4.59961,2470.063,2020-1-20T04:34:13Z
2020-01-20T02:36:44Z,42.805,6.029,13.2961,4.59962,2470.1,2020-1-20T04:37:17Z
2020-01-20T02:39:47Z,42.805,6.029,13.2964,4.59961,2470.11,2020-1-20T04:40:20Z
2020-01-20T02:42:50Z,42.805,6.029,13.2958,4.59961,2470.063,2020-1-20T04:43:23Z
2020-01-20T02:45:53Z,42.805,6.029,13.2962,4.59961,2470.04,2020-1-20T04:46:26Z
2020-01-20T02:48:57Z,42.805,6.029,13.2961,4.59961,2470.1,2020-1-20T04:49:29Z
2020-01-20T02:52:00Z,42.805,6.029,13.2964,4.59962,2470.077,2020-1-20T04:52:33Z
2020-01-20T02:55:03Z,42.805,6.029,13.2963,4.59961,2470.077,2020-1-20T04:55:36Z
2020-01-20T02:58:06Z,42.805,6.029,13.2966,4.59961,2470.11,2020-1-20T04:58:39Z
2020-01-20T03:01:09Z,42.805,6.029,13.2966,4.59961,2470.087,2020-1-20T05:01:42Z
2020-01-20T03:04:13Z,42.805,6.029,13.2963,4.59962,2470.063,2020-1-20T05:04:46Z
2020-01-20T03:07:16Z,42.805,6.029,13.2962,4.59962,2470.087,2020-1-20T05:07:49Z
2020-01-20T03:10:19Z,42.805,6.029,13.2964,4.59962,2470.077,2020-1-20T05:10:52Z
2020-01-20T03:13:22Z,42.805,6.029,13.2963,4.59961,2470.063,2020-1-20T05:13:55Z
2020-01-20T03:16:26Z,42.805,6.029,13.2968,4.59963,2470.063,2020-1-20T05:16:58Z
2020-01-20T03:19:29Z,42.805,6.029,13.2963,4.59962,2470.04,2020-1-20T05:20:02Z
2020-01-20T03:22:32Z,42.805,6.029,13.2963,4.59961,2470.049,2020-1-20T05:23:05Z
2020-01-20T03:25:35Z,42.805,6.029,13.2966,4.59961,2470.1,2020-1-20T05:26:08Z
2020-01-20T03:28:39Z,42.805,6.029,13.2961,4.59961,2470.11,2020-1-20T05:29:11Z
2020-01-20T03:31:42Z,42.805,6.029,13.2964,4.59962,2470.087,2020-1-20T05:32:15Z
2020-01-20T03:34:45Z,42.805,6.029,13.2962,4.59962,2470.063,2020-1-20T05:35:18Z
2020-01-20T03:37:48Z,42.805,6.029,13.2964,4.59961,2470.11,2020-1-20T05:38:21Z
2020-01-20T03:40:52Z,42.805,6.029,13.2966,4.59961,2470.049,2020-1-20T05:41:24Z
2020-01-20T03:43:55Z,42.805,6.029,13.2962,4.59963,2470.087,2020-1-20T05:44:28Z
2020-01-20T03:46:58Z,42.805,6.029,13.2963,4.59962,2470.11,2020-1-20T05:47:31Z
2020-01-20T03:50:01Z,42.805,6.029,13.2965,4.59961,2470.1,2020-1-20T05:50:34Z
2020-01-20T03:53:05Z,42.805,6.029,13.2964,4.59963,2470.087,2020-1-20T05:53:37Z
2020-01-20T03:56:08Z,42.805,6.029,13.2964,4.59961,2470.087,2020-1-20T05:56:41Z
2020-01-20T03:59:11Z,42.805,6.029,13.2964,4.59961,2470.124,2020-1-20T05:59:44Z
2020-01-20T04:02:15Z,42.805,6.029,13.2964,4.59961,2470.087,2020-1-20T06:02:47Z
2020-01-20T04:05:18Z,42.805,6.029,13.2962,4.59962,2470.087,2020-1-20T06:05:51Z
2020-01-20T04:08:21Z,42.805,6.029,13.2964,4.59964,2470.087,2020-1-20T06:08:54Z
2020-01-20T04:11:24Z,42.805,6.029,13.2966,4.59962,2470.087,2020-1-20T06:11:57Z
2020-01-20T04:14:27Z,42.805,6.029,13.2964,4.59962,2470.063,2020-1-20T06:15:00Z
2020-01-20T04:17:31Z,42.805,6.029,13.2963,4.59964,2470.1,2020-1-20T06:18:04Z
2020-01-20T04:20:34Z,42.805,6.029,13.2962,4.59961,2470.1,2020-1-20T06:21:07Z
2020-01-20T04:23:37Z,42.805,6.029,13.2961,4.59963,2470.087,2020-1-20T06:24:10Z
2020-01-20T04:26:41Z,42.805,6.029,13.2964,4.59962,2470.1,2020-1-20T06:27:13Z
2020-01-20T04:29:44Z,42.805,6.029,13.2967,4.59962,2470.1,2020-1-20T06:30:17Z
2020-01-20T04:32:47Z,42.805,6.029,13.2962,4.59964,2470.087,2020-1-20T06:33:20Z
2020-01-20T04:35:50Z,42.805,6.029,13.2964,4.59962,2470.1,2020-1-20T06:36:23Z
2020-01-20T04:38:53Z,42.805,6.029,13.2967,4.59962,2470.1,2020-1-20T06:39:26Z
2020-01-20T04:41:57Z,42.805,6.029,13.2961,4.59961,2470.11,2020-1-20T06:42:30Z
2020-01-20T04:45:00Z,42.805,6.029,13.2963,4.59962,2470.1,2020-1-20T06:45:33Z
2020-01-20T04:48:03Z,42.805,6.029,13.2965,4.59962,2470.087,2020-1-20T06:48:36Z
2020-01-20T04:51:06Z,42.805,6.029,13.2961,4.59962,2470.1,2020-1-20T06:51:39Z
2020-01-20T04:54:10Z,42.805,6.029,13.2965,4.59962,2470.087,2020-1-20T06:54:42Z
2020-01-20T04:57:13Z,42.805,6.029,13.2967,4.59962,2470.11,2020-1-20T06:57:46Z
2020-01-20T05:00:16Z,42.805,6.029,13.2967,4.59961,2470.11,2020-1-20T07:00:49Z
2020-01-20T05:03:19Z,42.805,6.029,13.2963,4.59961,2470.11,2020-1-20T07:03:52Z
2020-01-20T05:06:23Z,42.805,6.029,13.2964,4.59961,2470.124,2020-1-20T07:06:55Z
2020-01-20T05:09:26Z,42.805,6.029,13.2964,4.59961,2470.063,2020-1-20T07:09:59Z
2020-01-20T05:12:29Z,42.805,6.029,13.2963,4.59961,2470.087,2020-1-20T07:13:02Z
2020-01-20T05:15:32Z,42.805,6.029,13.2961,4.59962,2470.087,2020-1-20T07:16:05Z
2020-01-20T05:18:36Z,42.805,6.029,13.2964,4.59962,2470.11,2020-1-20T07:19:08Z
2020-01-20T05:21:39Z,42.805,6.029,13.2967,4.59961,2470.11,2020-1-20T07:22:12Z
2020-01-20T05:24:42Z,42.805,6.029,13.2965,4.59962,2470.087,2020-1-20T07:25:15Z
2020-01-20T05:27:45Z,42.805,6.029,13.2963,4.59961,2470.1,2020-1-20T07:28:18Z
2020-01-20T05:30:49Z,42.805,6.029,13.2967,4.59961,2470.124,2020-1-20T07:31:21Z
2020-01-20T05:33:52Z,42.805,6.029,13.2963,4.59961,2470.087,2020-1-20T07:34:25Z
2020-01-20T05:36:55Z,42.805,6.029,13.2967,4.59962,2470.1,2020-1-20T07:37:28Z
2020-01-20T05:39:58Z,42.805,6.029,13.2964,4.59965,2470.087,2020-1-20T07:40:31Z
2020-01-20T05:43:02Z,42.805,6.029,13.2963,4.59961,2470.11,2020-1-20T07:43:34Z
2020-01-20T05:46:05Z,42.805,6.029,13.2962,4.59961,2470.077,2020-1-20T07:46:38Z
2020-01-20T05:49:08Z,42.805,6.029,13.2967,4.59961,2470.087,2020-1-20T07:49:41Z
2020-01-20T05:52:11Z,42.805,6.029,13.2963,4.59961,2470.087,2020-1-20T07:52:44Z
2020-01-20T05:55:14Z,42.805,6.029,13.2963,4.59963,2470.077,2020-1-20T07:55:47Z
2020-01-20T05:58:18Z,42.805,6.029,13.2961,4.59962,2470.077,2020-1-20T07:58:51Z
2020-01-20T06:01:21Z,42.805,6.029,13.2964,4.59961,2470.124,2020-1-20T08:01:54Z
2020-01-20T06:04:24Z,42.805,6.029,13.2960,4.59961,2470.11,2020-1-20T08:04:57Z
2020-01-20T06:07:27Z,42.805,6.029,13.2964,4.59961,2470.11,2020-1-20T08:08:00Z
2020-01-20T06:10:31Z,42.805,6.029,13.2966,4.59962,2470.077,2020-1-20T08:11:03Z
2020-01-20T06:13:34Z,42.805,6.029,13.2961,4.59961,2470.063,2020-1-20T08:14:07Z
2020-01-20T06:16:37Z,42.805,6.029,13.2966,4.59962,2470.1,2020-1-20T08:17:10Z
2020-01-20T06:19:40Z,42.805,6.029,13.2962,4.59964,2470.11,2020-1-20T08:20:13Z
2020-01-20T06:22:44Z,42.805,6.029,13.2963,4.59961,2470.11,2020-1-20T08:23:17Z
2020-01-20T06:25:47Z,42.805,6.029,13.2964,4.59961,2470.077,2020-1-20T08:26:20Z
2020-01-20T06:28:50Z,42.805,6.029,13.2967,4.59961,2470.087,2020-1-20T08:29:23Z
2020-01-20T06:31:54Z,42.805,6.029,13.2963,4.59962,2470.11,2020-1-20T08:32:26Z
2020-01-20T06:34:57Z,42.805,6.029,13.2967,4.59961,2470.124,2020-1-20T08:35:30Z
2020-01-20T06:38:00Z,42.805,6.029,13.2963,4.59961,2470.1,2020-1-20T08:38:33Z
2020-01-20T06:41:03Z,42.805,6.029,13.2970,4.59961,2470.1,2020-1-20T08:41:36Z
2020-01-20T06:44:07Z,42.805,6.029,13.2961,4.59961,2470.077,2020-1-20T08:44:39Z
2020-01-20T06:47:10Z,42.805,6.029,13.2967,4.59964,2470.1,2020-1-20T08:47:43Z
2020-01-20T06:50:13Z,42.805,6.029,13.2963,4.59961,2470.087,2020-1-20T08:50:46Z
2020-01-20T06:53:17Z,42.805,6.029,13.2964,4.59963,2470.1,2020-1-20T08:53:49Z
2020-01-20T06:56:20Z,42.805,6.029,13.2962,4.59961,2470.11,2020-1-20T08:56:53Z
2020-01-20T06:59:23Z,42.805,6.029,13.2965,4.59961,2470.087,2020-1-20T08:59:56Z
2020-01-20T07:02:26Z,42.805,6.029,13.2961,4.59962,2470.147,2020-1-20T09:02:59Z
2020-01-20T07:05:29Z,42.805,6.029,13.2967,4.59961,2470.063,2020-1-20T09:06:02Z
2020-01-20T07:08:33Z,42.805,6.029,13.2957,4.59962,2470.087,2020-1-20T09:09:06Z
2020-01-20T07:11:36Z,42.805,6.029,13.2967,4.59961,2470.133,2020-1-20T09:12:09Z
2020-01-20T07:14:39Z,42.805,6.029,13.2964,4.59961,2470.11,2020-1-20T09:15:12Z
2020-01-20T07:17:42Z,42.805,6.029,13.2962,4.59961,2470.087,2020-1-20T09:18:15Z
2020-01-20T07:20:46Z,42.805,6.029,13.2967,4.59963,2470.1,2020-1-20T09:21:19Z
2020-01-20T07:23:49Z,42.805,6.029,13.2960,4.59961,2470.077,2020-1-20T09:24:22Z
2020-01-20T07:26:52Z,42.805,6.029,13.2965,4.59961,2470.063,2020-1-20T09:27:25Z
2020-01-20T07:29:55Z,42.805,6.029,13.2963,4.59961,2470.1,2020-1-20T09:30:28Z
2020-01-20T07:32:59Z,42.805,6.029,13.2963,4.59962,2470.063,2020-1-20T09:33:31Z
2020-01-20T07:36:02Z,42.805,6.029,13.2964,4.59961,2470.11,2020-1-20T09:36:35Z
2020-01-20T07:39:05Z,42.805,6.029,13.2960,4.59963,2470.04,2020-1-20T09:39:38Z
2020-01-20T07:42:08Z,42.805,6.029,13.2964,4.59961,2470.11,2020-1-20T09:42:41Z
2020-01-20T07:45:12Z,42.805,6.029,13.2967,4.59961,2470.1,2020-1-20T09:45:45Z
2020-01-20T07:48:15Z,42.805,6.029,13.2964,4.59961,2470.077,2020-1-20T09:48:48Z
2020-01-20T07:51:18Z,42.805,6.029,13.2960,4.59962,2470.11,2020-1-20T09:51:51Z
2020-01-20T07:54:21Z,42.805,6.029,13.2964,4.59961,2470.077,2020-1-20T09:54:54Z
2020-01-20T07:57:25Z,42.805,6.029,13.2963,4.59962,2470.077,2020-1-20T09:57:57Z
2020-01-20T08:00:28Z,42.805,6.029,13.2968,4.59962,2470.063,2020-1-20T10:01:01Z
2020-01-20T08:03:31Z,42.805,6.029,13.2961,4.59961,2470.063,2020-1-20T10:04:04Z
2020-01-20T08:06:34Z,42.805,6.029,13.2966,4.59961,2470.1,2020-1-20T10:07:07Z
2020-01-20T08:09:38Z,42.805,6.029,13.2964,4.59961,2470.087,2020-1-20T10:10:11Z
2020-01-20T08:12:41Z,42.805,6.029,13.2965,4.59962,2470.04,2020-1-20T10:13:14Z
2020-01-20T08:15:44Z,42.805,6.029,13.2964,4.59963,2470.04,2020-1-20T10:16:17Z
2020-01-20T08:18:47Z,42.805,6.029,13.2968,4.59961,2470.063,2020-1-20T10:19:20Z
2020-01-20T08:21:51Z,42.805,6.029,13.2967,4.59961,2470.087,2020-1-20T10:22:24Z
2020-01-20T08:24:54Z,42.805,6.029,13.2964,4.59964,2470.1,2020-1-20T10:25:27Z
2020-01-20T08:27:57Z,42.805,6.029,13.2963,4.59961,2470.087,2020-1-20T10:28:30Z
2020-01-20T08:31:01Z,42.805,6.029,13.2967,4.59961,2470.063,2020-1-20T10:31:33Z
2020-01-20T08:34:04Z,42.805,6.029,13.2964,4.59961,2470.04,2020-1-20T10:34:37Z
2020-01-20T08:37:07Z,42.805,6.029,13.2965,4.59962,2470.077,2020-1-20T10:37:40Z
2020-01-20T08:40:10Z,42.805,6.029,13.2964,4.59961,2470.063,2020-1-20T10:40:43Z
2020-01-20T08:43:14Z,42.805,6.029,13.2961,4.59964,2470.017,2020-1-20T10:43:47Z
2020-01-20T08:46:17Z,42.805,6.029,13.2964,4.59961,2470.077,2020-1-20T10:46:50Z
2020-01-20T08:49:20Z,42.805,6.029,13.2961,4.59961,2470.087,2020-1-20T10:49:53Z
2020-01-20T08:52:24Z,42.805,6.029,13.2961,4.59962,2470.087,2020-1-20T10:52:56Z
2020-01-20T08:55:27Z,42.805,6.029,13.2966,4.59962,2470.063,2020-1-20T10:56:00Z
2020-01-20T08:58:30Z,42.805,6.029,13.2964,4.59961,2470.077,2020-1-20T10:59:03Z
2020-01-20T09:01:33Z,42.805,6.029,13.2965,4.59963,2470.063,2020-1-20T11:02:06Z
2020-01-20T09:04:36Z,42.805,6.029,13.2965,4.59963,2470.053,2020-1-20T11:05:09Z
2020-01-20T09:07:40Z,42.805,6.029,13.2961,4.59963,2470.053,2020-1-20T11:08:12Z
2020-01-20T09:10:43Z,42.805,6.029,13.2962,4.59961,2470.087,2020-1-20T11:11:16Z
2020-01-20T09:13:46Z,42.805,6.029,13.2964,4.59961,2470.04,2020-1-20T11:14:19Z
2020-01-20T09:16:49Z,42.805,6.029,13.2963,4.59961,2470.04,2020-1-20T11:17:22Z
2020-01-20T09:19:53Z,42.805,6.029,13.2961,4.59961,2470.063,2020-1-20T11:20:26Z
2020-01-20T09:22:56Z,42.805,6.029,13.2963,4.59961,2470.053,2020-1-20T11:23:29Z
2020-01-20T09:25:59Z,42.805,6.029,13.2961,4.59964,2470.04,2020-1-20T11:26:32Z
2020-01-20T09:29:02Z,42.805,6.029,13.2961,4.59963,2470.04,2020-1-20T11:29:35Z
2020-01-20T09:32:06Z,42.805,6.029,13.2965,4.59961,2470.063,2020-1-20T11:32:38Z
2020-01-20T09:35:09Z,42.805,6.029,13.2960,4.59961,2470.03,2020-1-20T11:35:42Z
2020-01-20T09:38:12Z,42.805,6.029,13.2960,4.59961,2470.053,2020-1-20T11:38:45Z
2020-01-20T09:41:15Z,42.805,6.029,13.2964,4.59961,2470.077,2020-1-20T11:41:48Z
2020-01-20T09:44:19Z,42.805,6.029,13.2965,4.59961,2470.063,2020-1-20T11:44:51Z
2020-01-20T09:47:22Z,42.805,6.029,13.2967,4.59964,2470.053,2020-1-20T11:47:55Z
2020-01-20T09:50:25Z,42.805,6.029,13.2965,4.59962,2470.063,2020-1-20T11:50:58Z
2020-01-20T09:53:28Z,42.805,6.029,13.2964,4.59962,2470.053,2020-1-20T11:54:01Z
2020-01-20T09:56:32Z,42.805,6.029,13.2964,4.59962,2470.063,2020-1-20T11:57:04Z
2020-01-20T09:59:35Z,42.805,6.029,13.2963,4.59964,2470.017,2020-1-20T12:00:08Z
2020-01-20T10:02:38Z,42.805,6.029,13.2964,4.59961,2470.04,2020-1-20T12:03:11Z
2020-01-20T10:05:41Z,42.805,6.029,13.2960,4.59964,2470.053,2020-1-20T12:06:14Z
2020-01-20T10:08:45Z,42.805,6.029,13.2964,4.59962,2470.03,2020-1-20T12:09:18Z
2020-01-20T10:11:48Z,42.805,6.029,13.2967,4.59962,2470.04,2020-1-20T12:12:21Z
2020-01-20T10:14:51Z,42.805,6.029,13.2967,4.59961,2470.04,2020-1-20T12:15:24Z
2020-01-20T10:17:54Z,42.805,6.029,13.2966,4.59967,2470.063,2020-1-20T12:18:27Z
2020-01-20T10:20:58Z,42.805,6.029,13.2960,4.59964,2470.077,2020-1-20T12:21:31Z
2020-01-20T10:24:01Z,42.805,6.029,13.2963,4.59961,2470.053,2020-1-20T12:24:34Z
2020-01-20T10:27:04Z,42.805,6.029,13.2965,4.59962,2470.04,2020-1-20T12:27:37Z
2020-01-20T10:30:07Z,42.805,6.029,13.2966,4.59961,2470.063,2020-1-20T12:30:40Z
2020-01-20T10:33:11Z,42.805,6.029,13.2964,4.59961,2470.077,2020-1-20T12:33:44Z
2020-01-20T10:36:14Z,42.805,6.029,13.2963,4.59961,2470.053,2020-1-20T12:36:47Z
2020-01-20T10:39:17Z,42.805,6.029,13.2967,4.59962,2470.077,2020-1-20T12:39:50Z
2020-01-20T10:42:20Z,42.805,6.029,13.2962,4.59963,2470.077,2020-1-20T12:42:53Z
2020-01-20T10:45:24Z,42.805,6.029,13.2961,4.59962,2470.053,2020-1-20T12:45:57Z
2020-01-20T10:48:27Z,42.805,6.029,13.2960,4.59963,2470.077,2020-1-20T12:49:00Z
2020-01-20T10:51:30Z,42.805,6.029,13.2963,4.59962,2470.04,2020-1-20T12:52:03Z
2020-01-20T10:54:33Z,42.805,6.029,13.2960,4.59962,2470.04,2020-1-20T12:55:06Z
2020-01-20T10:57:37Z,42.805,6.029,13.2962,4.59961,2470.04,2020-1-20T12:58:10Z
2020-01-20T11:00:40Z,42.805,6.029,13.2966,4.59962,2470.053,2020-1-20T13:01:13Z
2020-01-20T11:03:43Z,42.805,6.029,13.2963,4.59961,2470.063,2020-1-20T13:04:16Z
2020-01-20T11:06:46Z,42.805,6.029,13.2960,4.59961,2470.077,2020-1-20T13:07:19Z
2020-01-20T11:09:50Z,42.805,6.029,13.2965,4.59963,2470.017,2020-1-20T13:10:22Z
2020-01-20T11:12:53Z,42.805,6.029,13.2964,4.59961,2470.04,2020-1-20T13:13:26Z
2020-01-20T11:15:57Z,42.805,6.029,13.2964,4.59961,2470.11,2020-1-20T13:16:29Z
2020-01-20T11:19:00Z,42.805,6.029,13.2960,4.59964,2470.124,2020-1-20T13:19:33Z
2020-01-20T11:22:03Z,42.805,6.029,13.2961,4.59962,2470.063,2020-1-20T13:22:36Z
2020-01-20T11:25:06Z,42.805,6.029,13.2958,4.59964,2470.063,2020-1-20T13:25:39Z
2020-01-20T11:28:10Z,42.805,6.029,13.2964,4.59962,2470.1,2020-1-20T13:28:43Z
2020-01-20T11:31:13Z,42.805,6.029,13.2965,4.59962,2470.053,2020-1-20T13:31:46Z
2020-01-20T11:34:16Z,42.805,6.029,13.2964,4.59961,2470.04,2020-1-20T13:34:49Z
2020-01-20T11:37:19Z,42.805,6.029,13.2960,4.59964,2470.063,2020-1-20T13:37:52Z
2020-01-20T11:40:23Z,42.805,6.029,13.2959,4.59961,2470.03,2020-1-20T13:40:55Z
2020-01-20T11:43:26Z,42.805,6.029,13.2961,4.59964,2470.1,2020-1-20T13:43:59Z
2020-01-20T11:46:29Z,42.805,6.029,13.2963,4.59962,2470.1,2020-1-20T13:47:02Z
2020-01-20T11:49:32Z,42.805,6.029,13.2964,4.59962,2470.063,2020-1-20T13:50:05Z
2020-01-20T11:52:35Z,42.805,6.029,13.2963,4.59962,2470.1,2020-1-20T13:53:08Z
2020-01-20T11:55:39Z,42.805,6.029,13.2965,4.59963,2470.063,2020-1-20T13:56:11Z
2020-01-20T11:58:42Z,42.805,6.029,13.2963,4.59963,2470.063,2020-1-20T13:59:15Z
2020-01-20T12:01:45Z,42.805,6.029,13.2966,4.59962,2470.077,2020-1-20T14:02:18Z
2020-01-20T12:04:48Z,42.805,6.029,13.2962,4.59962,2470.053,2020-1-20T14:05:21Z
2020-01-20T12:07:52Z,42.805,6.029,13.2961,4.59962,2470.063,2020-1-20T14:08:25Z
2020-01-20T12:10:55Z,42.805,6.029,13.2966,4.59962,2470.063,2020-1-20T14:11:28Z
2020-01-20T12:13:58Z,42.805,6.029,13.2965,4.59963,2470.087,2020-1-20T14:14:31Z
2020-01-20T12:17:01Z,42.805,6.029,13.2964,4.59961,2470.11,2020-1-20T14:17:34Z
2020-01-20T12:20:05Z,42.805,6.029,13.2965,4.59961,2470.1,2020-1-20T14:20:37Z
2020-01-20T12:23:08Z,42.805,6.029,13.2963,4.59961,2470.11,2020-1-20T14:23:41Z
2020-01-20T12:26:11Z,42.805,6.029,13.2962,4.59961,2470.087,2020-1-20T14:26:44Z
2020-01-20T12:29:14Z,42.805,6.029,13.2964,4.59962,2470.1,2020-1-20T14:29:47Z
2020-01-20T12:32:18Z,42.805,6.029,13.2964,4.59963,2470.1,2020-1-20T14:32:50Z
2020-01-20T12:35:21Z,42.805,6.029,13.2967,4.59962,2470.077,2020-1-20T14:35:54Z
2020-01-20T12:38:24Z,42.805,6.029,13.2961,4.59961,2470.087,2020-1-20T14:38:57Z
2020-01-20T12:41:27Z,42.805,6.029,13.2958,4.59961,2470.063,2020-1-20T14:42:00Z
2020-01-20T12:44:30Z,42.805,6.029,13.2963,4.59962,2470.124,2020-1-20T14:45:03Z
2020-01-20T12:47:34Z,42.805,6.029,13.2962,4.59964,2470.124,2020-1-20T14:48:07Z
2020-01-20T12:50:37Z,42.805,6.029,13.2963,4.59962,2470.11,2020-1-20T14:51:10Z
2020-01-20T12:53:40Z,42.805,6.029,13.2962,4.59962,2470.124,2020-1-20T14:54:13Z
2020-01-20T12:56:43Z,42.805,6.029,13.2959,4.59961,2470.087,2020-1-20T14:57:16Z
2020-01-20T12:59:47Z,42.805,6.029,13.2964,4.59962,2470.087,2020-1-20T15:00:20Z
2020-01-20T13:02:50Z,42.805,6.029,13.2962,4.59964,2470.087,2020-1-20T15:03:23Z
2020-01-20T13:05:53Z,42.805,6.029,13.2964,4.59961,2470.087,2020-1-20T15:06:26Z
2020-01-20T13:08:57Z,42.805,6.029,13.2966,4.59962,2470.11,2020-1-20T15:09:29Z
2020-01-20T13:12:00Z,42.805,6.029,13.2959,4.59961,2470.11,2020-1-20T15:12:33Z
2020-01-20T13:15:03Z,42.805,6.029,13.2964,4.59961,2470.11,2020-1-20T15:15:36Z
2020-01-20T13:18:06Z,42.805,6.029,13.2961,4.59961,2470.077,2020-1-20T15:18:39Z
2020-01-20T13:21:10Z,42.805,6.029,13.2962,4.59961,2470.11,2020-1-20T15:21:42Z
2020-01-20T13:24:13Z,42.805,6.029,13.2964,4.59961,2470.1,2020-1-20T15:24:46Z
2020-01-20T13:27:16Z,42.805,6.029,13.2962,4.59962,2470.11,2020-1-20T15:27:49Z
2020-01-20T13:30:19Z,42.805,6.029,13.2963,4.59964,2470.1,2020-1-20T15:30:52Z
2020-01-20T13:33:23Z,42.805,6.029,13.2964,4.59961,2470.124,2020-1-20T15:33:55Z
2020-01-20T13:36:26Z,42.805,6.029,13.2961,4.59962,2470.11,2020-1-20T15:36:59Z
2020-01-20T13:39:29Z,42.805,6.029,13.2964,4.59961,2470.147,2020-1-20T15:40:02Z
2020-01-20T13:42:32Z,42.805,6.029,13.2961,4.59963,2470.11,2020-1-20T15:43:05Z
2020-01-20T13:45:36Z,42.805,6.029,13.2965,4.59961,2470.087,2020-1-20T15:46:08Z
2020-01-20T13:48:39Z,42.805,6.029,13.2964,4.59962,2470.1,2020-1-20T15:49:12Z
2020-01-20T13:51:42Z,42.805,6.029,13.2960,4.59961,2470.11,2020-1-20T15:52:15Z
2020-01-20T13:54:45Z,42.805,6.029,13.2966,4.59963,2470.11,2020-1-20T15:55:18Z
2020-01-20T13:57:48Z,42.805,6.029,13.2963,4.59963,2470.1,2020-1-20T15:58:21Z
2020-01-20T14:00:52Z,42.805,6.029,13.2963,4.59962,2470.133,2020-1-20T16:01:24Z
2020-01-20T14:03:55Z,42.805,6.029,13.2961,4.59962,2470.133,2020-1-20T16:04:28Z
2020-01-20T14:06:58Z,42.805,6.029,13.2964,4.59962,2470.124,2020-1-20T16:07:31Z
2020-01-20T14:10:01Z,42.805,6.029,13.2961,4.59962,2470.147,2020-1-20T16:10:34Z
2020-01-20T14:13:04Z,42.805,6.029,13.2965,4.59963,2470.147,2020-1-20T16:13:37Z
2020-01-20T14:16:08Z,42.805,6.029,13.2961,4.59962,2470.147,2020-1-20T16:16:40Z
2020-01-20T14:19:11Z,42.805,6.029,13.2962,4.59962,2470.087,2020-1-20T16:19:44Z
2020-01-20T14:22:14Z,42.805,6.029,13.2967,4.59962,2470.133,2020-1-20T16:22:47Z
2020-01-20T14:25:17Z,42.805,6.029,13.2961,4.59962,2470.11,2020-1-20T16:25:50Z
2020-01-20T14:28:21Z,42.805,6.029,13.2961,4.59962,2470.11,2020-1-20T16:28:53Z
2020-01-20T14:31:24Z,42.805,6.029,13.2961,4.59962,2470.147,2020-1-20T16:31:57Z
2020-01-20T14:34:27Z,42.805,6.029,13.2964,4.59962,2470.133,2020-1-20T16:35:00Z
2020-01-20T14:37:30Z,42.805,6.029,13.2964,4.59963,2470.11,2020-1-20T16:38:03Z
2020-01-20T14:40:33Z,42.805,6.029,13.2961,4.59962,2470.11,2020-1-20T16:41:06Z
2020-01-20T14:43:37Z,42.805,6.029,13.2965,4.59961,2470.11,2020-1-20T16:44:10Z
2020-01-20T14:46:40Z,42.805,6.029,13.2961,4.59961,2470.124,2020-1-20T16:47:13Z
2020-01-20T14:49:43Z,42.805,6.029,13.2962,4.59961,2470.133,2020-1-20T16:50:16Z
2020-01-20T14:52:46Z,42.805,6.029,13.2967,4.59962,2470.133,2020-1-20T16:53:19Z
2020-01-20T14:55:50Z,42.805,6.029,13.2963,4.59961,2470.133,2020-1-20T16:56:22Z
2020-01-20T14:58:53Z,42.805,6.029,13.2962,4.59961,2470.133,2020-1-20T16:59:26Z
2020-01-20T15:01:56Z,42.805,6.029,13.2965,4.59962,2470.087,2020-1-20T17:02:29Z
2020-01-20T15:05:00Z,42.805,6.029,13.2962,4.59961,2470.133,2020-1-20T17:05:32Z
2020-01-20T15:08:03Z,42.805,6.029,13.2964,4.59962,2470.156,2020-1-20T17:08:36Z
2020-01-20T15:11:06Z,42.805,6.029,13.2961,4.59961,2470.133,2020-1-20T17:11:39Z
2020-01-20T15:14:09Z,42.805,6.029,13.2964,4.59962,2470.133,2020-1-20T17:14:42Z